Regional Weather Roundup
Issued by NWS Portland, ME

Home | Current Version | Previous Version | Text Only | Print | Product List | Glossary On
Versions: 1 2 3 4 5 6 7 8 9 10 11 12 13 14 15 16 17 18 19 20 21 22 23 24 25 26 27 28 29 30 31 32 33 34 35 36 37 38 39 40 41 42 43 44 45 46 47 48 49 50
717
ASUS41 KGYX 262110
RWRGYX
WEATHER ROUNDUP FOR MAINE AND NEW HAMPSHIRE
NATIONAL WEATHER SERVICE GRAY ME
500 PM EDT MON SEP 26 2016

MEZ002-005-006-010-012-015-018-020-021-024-026-027-029-262200-
MAINE

CITY           SKY/WX    TMP DP  RH WIND       PRES   REMARKS
PORTLAND       CLOUDY    58  40  51 S10       30.08F
SANFORD        SUNNY     59  43  55 S6        30.08F
BAR HARBOR     SUNNY    N/A N/A N/A S13       30.06F
WISCASSET      SUNNY     59  37  44 SW10      30.09F
ROCKLAND       SUNNY     58  42  55 S8        30.08F
FRYEBURG       CLOUDY    62  36  37 S7        30.06F
LEWISTONAUBURN SUNNY     60  41  49 S12       30.06F
AUGUSTA        SUNNY     61  35  37 SW8       30.06F
WATERVILLE     SUNNY     61  37  41 SW3       30.03F
BANGOR         MOSUNNY   62  37  39 VRB7      30.05S
GREENVILLE       N/A     57  35  43 VRB3      30.01S
MILLINOCKET    SUNNY     62  36  37 CALM      30.03F
HOULTON        SUNNY     59  41  51 SW7       29.99F
PRESQUE ISLE   SUNNY     59  40  49 CALM      30.00F
FRENCHVILLE    SUNNY     56  37  49 W3        29.98F
CARIBOU        SUNNY     59  40  49 W5        29.98F
$$

NHZ002-005-008-009-011-012-014-262200-
NEW HAMPSHIRE

CITY           SKY/WX    TMP DP  RH WIND       PRES   REMARKS
PORTSMOUTH     PTSUNNY   61  43  50 SE13      30.07F
ROCHESTER      SUNNY     63  42  46 CALM      30.07F
NASHUA         SUNNY     65  40  39 SW5       30.07F
MANCHESTER     PTSUNNY   66  34  30 S9        30.05F
CONCORD        SUNNY     65  36  34 S7        30.06F
LACONIA        SUNNY     64  39  39 S9        30.06F
PLYMOUTH       FAIR      66  37  34 SE3       30.04F
BERLIN         MOSUNNY   61  37  41 NW3       30.04F
WHITEFIELD     MOSUNNY   60  41  49 NW3       30.04F
JAFFREY        MOSUNNY   62  39  42 S7        30.09F
KEENE          MOSUNNY   63  43  48 S9        30.06F
LEBANON        CLOUDY    64  42  44 S10       30.03F
MT WASHINGTON  MOSUNNY   39  18  41 W24         N/A
$$

VTZ005-007-008-262200-
VERMONT

CITY           SKY/WX    TMP DP  RH WIND       PRES   REMARKS
ST JOHNSBURY     N/A     62  37  39 MISG      30.02F
MONTPELIER     MOSUNNY   60  41  49 S7        30.05F
BURLINGTON     CLOUDY    64  38  38 S10G18    29.99F
$$

MAZ007-012-024-CTZ003-RIZ002-NYZ038-NYZ072-262200-
SOUTHERN NEW ENGLAND AND NY

CITY           SKY/WX    TMP DP  RH WIND       PRES   REMARKS
BOSTON         PTSUNNY   62  47  57 SE15      30.09F
WORCESTER      CLOUDY    62  41  46 SW10      30.09F
NANTUCKET      SUNNY     61  40  45 S9        30.14F
PROVIDENCE     CLOUDY    65  45  48 S14       30.11F
HARTFORD       PTSUNNY   67  46  47 S12G20    30.07F
ALBANY         PTSUNNY   68  46  45 S14G22    30.01F
NEW YORK CITY  PTSUNNY   71  50  47 S13       30.06F
$$

ANZ081-ANZ082-ANZ150-NHZ014-MEZ023>029-262200-
COASTAL MARINE OBSERVATIONS

STATION/POSITION TIME  TEMP    WIND        PRES    WAVE
                       AIR SEA DIR/SP/G            HT/PER
                 (UTC) (F)     (DEG/KT/KT) (MB)    (FT/S)
MOUNT DESERT ROC 2100   54     220/ 12/ 13 1018.9F
MATINICUS ROCK   2100   55     230/ 16/ 17 1018.7F
ISLE OF SHOALS   2100   58     160/ 17/ 18 1018.7F
JEFFREYS LEDGE   2008      62                N/A     1/12
CASHES LEDGE BUO 2050   56 60  220/ 10/ 14 1019.7F   1/12
GEORGES BANK BUO 2050   60 63              1020.2F   3/ 7
$$

.............KEY..............
   WCI - WIND CHILL
   TC  - TEMPERATURE IN CELSIUS
   VSB - VISIBILITY IN MILES
   HX  - HEAT INDEX
   FAIR- INDICATES FEW OR NO CLOUDS BELOW 12,000 FT, WITH NO
         SIGNIFICANT WEATHER AND/OR OBSTRUCTIONS TO VISIBILITY.






USA.gov is the U.S. government's official web portal to all federal, state and local government web resources and services.